QPF
0.00 0.00 0.00 0.00 0.00 0.00 0.00 0.00 0.00 0.00 0.00 0.00 0.00 0.00 0.00 0.00 0.00 0.01 0.00 0.00 0.00 0.01 0.00 0.01 0.01 0.01 0.01 0.01 0.01 0.01 0.01 0.01 0.01 0.01 0.02 0.01 0.01 0.01 0.02 0.03 0.04 0.05 0.05 0.04
0.00 0.00 0.00 0.00 0.00 0.00 0.00 0.00 0.00 0.00 0.00 0.00 0.00 0.00 0.00 0.00 0.00 0.00 0.00 0.00 0.00 0.00 0.01 0.01 0.01 0.01 0.01 0.01 0.01 0.01 0.01 0.01 0.01 0.01 0.02 0.02 0.01 0.01 0.01 0.03 0.04 0.05 0.05 0.04
0.00 0.00 0.00 0.00 0.00 0.00 0.00 0.00 0.00 0.00 0.00 0.00 0.00 0.00 0.00 0.00 0.00 0.00 0.00 0.00 0.01 0.02 0.02 0.01 0.01 0.01 0.01 0.01 0.02 0.02 0.01 0.02 0.02 0.02 0.02 0.02 0.02 0.02 0.02 0.02 0.04 0.06 0.06 0.07
0.01 0.01 0.01 0.00 0.00 0.00 0.00 0.00 0.00 0.00 0.00 0.00 0.01 0.01 0.01 0.01 0.01 0.01 0.01 0.01 0.01 0.01 0.01 0.01 0.01 0.00 0.01 0.01 0.01 0.01 0.01 0.01 0.02 0.02 0.02 0.02 0.02 0.02 0.02 0.03 0.04 0.06 0.07 0.09
0.01 0.01 0.01 0.00 0.00 0.00 0.00 0.00 0.00 0.00 0.00 0.00 0.00 0.01 0.01 0.01 0.01 0.01 0.01 0.01 0.01 0.00 0.00 0.00 0.00 0.00 0.00 0.01 0.01 0.01 0.01 0.01 0.02 0.03 0.03 0.02 0.02 0.02 0.02 0.02 0.03 0.05 0.06 0.07
0.01 0.01 0.01 0.00 0.00 0.00 0.01 0.01 0.00 0.00 0.00 0.00 0.00 0.01 0.02 0.02 0.02 0.01 0.01 0.01 0.00 0.00 0.00 0.00 0.00 0.00 0.00 0.01 0.01 0.02 0.02 0.02 0.03 0.04 0.04 0.03 0.03 0.03 0.03 0.02 0.03 0.05 0.05 0.03
0.01 0.01 0.01 0.00 0.00 0.01 0.02 0.01 0.01 0.01 0.01 0.01 0.03 0.03 0.03 0.02 0.02 0.01 0.01 0.01 0.01 0.01 0.00 0.00 0.00 0.00 0.01 0.01 0.01 0.02 0.02 0.03 0.03 0.04 0.04 0.04 0.04 0.04 0.02 0.01 0.01 0.02 0.01 0.01
0.01 0.01 0.01 0.00 0.01 0.01 0.01 0.01 0.01 0.01 0.02 0.03 0.03 0.03 0.03 0.03 0.02 0.02 0.02 0.02 0.01 0.01 0.00 0.00 0.00 0.00 0.01 0.01 0.01 0.01 0.01 0.02 0.03 0.02 0.02 0.02 0.02 0.02 0.02 0.01 0.01 0.01 0.01 0.02
0.01 0.01 0.01 0.01 0.01 0.01 0.01 0.01 0.01 0.01 0.02 0.02 0.03 0.03 0.04 0.03 0.02 0.02 0.03 0.03 0.02 0.01 0.01 0.01 0.00 0.00 0.00 0.00 0.01 0.01 0.01 0.01 0.02 0.02 0.02 0.02 0.02 0.02 0.02 0.02 0.02 0.02 0.03 0.03
0.01 0.01 0.01 0.01 0.01 0.01 0.01 0.01 0.02 0.02 0.01 0.02 0.03 0.03 0.03 0.03 0.03 0.03 0.03 0.03 0.03 0.02 0.01 0.01 0.01 0.00 0.01 0.01 0.01 0.02 0.02 0.03 0.03 0.02 0.02 0.02 0.02 0.02 0.02 0.02 0.03 0.04 0.04 0.04
0.01 0.02 0.02 0.01 0.01 0.01 0.01 0.01 0.01 0.01 0.01 0.01 0.02 0.03 0.03 0.03 0.03 0.03 0.03 0.03 0.04 0.02 0.01 0.01 0.01 0.01 0.01 0.01 0.01 0.02 0.03 0.04 0.04 0.04 0.03 0.03 0.02 0.02 0.02 0.02 0.02 0.02 0.03 0.04
0.02 0.02 0.01 0.02 0.01 0.01 0.01 0.01 0.01 0.01 0.01 0.01 0.02 0.03 0.03 0.02 0.03 0.03 0.03 0.02 0.02 0.02 0.02 0.01 0.02 0.01 0.01 0.01 0.02 0.02 0.03 0.04 0.04 0.03 0.03 0.02 0.02 0.02 0.03 0.03 0.02 0.02 0.03 0.02
0.01 0.01 0.02 0.02 0.02 0.03 0.03 0.02 0.02 0.02 0.01 0.01 0.02 0.02 0.03 0.04 0.04 0.04 0.03 0.02 0.02 0.02 0.03 0.02 0.02 0.01 0.01 0.01 0.01 0.02 0.03 0.03 0.03 0.03 0.02 0.02 0.01 0.01 0.02 0.04 0.02 0.02 0.02 0.02
0.01 0.02 0.03 0.03 0.03 0.03 0.02 0.03 0.03 0.02 0.02 0.02 0.02 0.02 0.03 0.04 0.04 0.04 0.03 0.02 0.02 0.02 0.03 0.04 0.04 0.03 0.02 0.02 0.02 0.02 0.03 0.03 0.03 0.03 0.03 0.02 0.01 0.01 0.00 0.01 0.01 0.01 0.01 0.02
0.02 0.02 0.03 0.03 0.03 0.03 0.03 0.03 0.03 0.03 0.04 0.03 0.03 0.03 0.03 0.02 0.02 0.03 0.02 0.02 0.01 0.01 0.02 0.02 0.04 0.05 0.03 0.03 0.03 0.02 0.02 0.03 0.02 0.03 0.02 0.02 0.01 0.01 0.00 0.00 0.00 0.00 0.00 0.01
0.04 0.06 0.05 0.03 0.03 0.03 0.03 0.04 0.03 0.03 0.03 0.03 0.03 0.02 0.02 0.02 0.02 0.02 0.01 0.02 0.02 0.01 0.01 0.01 0.01 0.04 0.06 0.04 0.03 0.03 0.02 0.02 0.02 0.02 0.02 0.01 0.01 0.01 0.01 0.01 0.01 0.01 0.00 0.01
0.05 0.07 0.05 0.02 0.02 0.02 0.03 0.04 0.04 0.04 0.03 0.03 0.03 0.02 0.01 0.02 0.02 0.01 0.01 0.01 0.01 0.01 0.01 0.01 0.02 0.01 0.02 0.04 0.04 0.03 0.02 0.02 0.02 0.02 0.01 0.01 0.01 0.01 0.01 0.01 0.01 0.01 0.01 0.02
0.03 0.04 0.03 0.02 0.01 0.01 0.01 0.02 0.03 0.04 0.05 0.03 0.03 0.03 0.02 0.02 0.02 0.01 0.00 0.00 0.00 0.01 0.00 0.01 0.01 0.01 0.01 0.01 0.03 0.03 0.02 0.02 0.02 0.02 0.01 0.01 0.01 0.01 0.01 0.01 0.01 0.01 0.01 0.02
0.01 0.02 0.02 0.02 0.01 0.01 0.01 0.01 0.01 0.02 0.03 0.04 0.03 0.03 0.03 0.02 0.01 0.01 0.00 0.00 0.00 0.00 0.00 0.01 0.01 0.01 0.00 0.01 0.01 0.02 0.02 0.01 0.01 0.01 0.01 0.01 0.01 0.01 0.01 0.01 0.01 0.01 0.01 0.02
0.02 0.02 0.02 0.01 0.01 0.01 0.00 0.00 0.01 0.02 0.03 0.03 0.01 0.01 0.01 0.01 0.01 0.00 0.00 0.00 0.01 0.01 0.01 0.01 0.01 0.01 0.00 0.01 0.01 0.01 0.01 0.01 0.01 0.01 0.02 0.01 0.01 0.01 0.01 0.01 0.01 0.01 0.01 0.02
0.03 0.02 0.02 0.01 0.01 0.01 0.01 0.01 0.01 0.01 0.02 0.02 0.01 0.00 0.00 0.00 0.00 0.01 0.01 0.01 0.01 0.01 0.01 0.01 0.01 0.01 0.01 0.02 0.02 0.02 0.02 0.02 0.02 0.02 0.02 0.02 0.01 0.02 0.02 0.02 0.02 0.02 0.02 0.02
0.03 0.03 0.02 0.01 0.01 0.01 0.01 0.01 0.00 0.00 0.00 0.00 0.00 0.01 0.01 0.01 0.01 0.01 0.01 0.01 0.01 0.01 0.01 0.01 0.01 0.02 0.02 0.03 0.03 0.02 0.02 0.03 0.03 0.03 0.02 0.02 0.03 0.03 0.04 0.03 0.02 0.02 0.01 0.01
0.04 0.03 0.02 0.02 0.01 0.01 0.01 0.01 0.00 0.00 0.00 0.00 0.00 0.01 0.01 0.01 0.01 0.02 0.02 0.02 0.02 0.01 0.01 0.01 0.01 0.02 0.03 0.03 0.02 0.02 0.03 0.03 0.03 0.02 0.02 0.02 0.02 0.02 0.03 0.02 0.02 0.02 0.01 0.01
0.04 0.03 0.03 0.02 0.02 0.01 0.01 0.01 0.01 0.01 0.01 0.01 0.01 0.01 0.01 0.02 0.02 0.03 0.02 0.02 0.02 0.02 0.02 0.02 0.02 0.03 0.04 0.03 0.04 0.04 0.03 0.03 0.03 0.02 0.02 0.01 0.01 0.02 0.02 0.02 0.02 0.03 0.03 0.02
0.07 0.05 0.04 0.03 0.02 0.02 0.01 0.01 0.01 0.01 0.01 0.01 0.01 0.01 0.01 0.01 0.02 0.02 0.02 0.01 0.01 0.01 0.01 0.01 0.02 0.02 0.02 0.02 0.03 0.03 0.03 0.03 0.02 0.02 0.01 0.02 0.02 0.03 0.03 0.03 0.02 0.03 0.04 0.04
0.11 0.08 0.05 0.04 0.03 0.02 0.02 0.02 0.02 0.01 0.01 0.01 0.01 0.01 0.01 0.01 0.01 0.01 0.01 0.01 0.01 0.01 0.01 0.01 0.01 0.01 0.01 0.02 0.02 0.02 0.02 0.02 0.02 0.02 0.01 0.02 0.02 0.02 0.02 0.02 0.02 0.03 0.03 0.04
0.08 0.08 0.07 0.05 0.03 0.03 0.03 0.02 0.01 0.01 0.01 0.01 0.01 0.01 0.01 0.01 0.01 0.01 0.01 0.01 0.00 0.00 0.00 0.01 0.01 0.02 0.02 0.02 0.02 0.02 0.01 0.01 0.01 0.01 0.01 0.01 0.01 0.01 0.01 0.01 0.01 0.01 0.01 0.01
MSLP
1008.53 1009.14 1009.64 1010.02 1010.26 1010.38 1010.38 1010.31 1010.20 1010.09 1010.05 1010.10 1010.30 1010.66 1011.17 1011.83 1012.60 1013.44 1014.31 1015.16 1015.97 1016.70 1017.36 1017.96 1018.51 1019.04 1019.56 1020.09 1020.62 1021.15 1021.67 1022.14 1022.56 1022.92 1023.20 1023.41 1023.56 1023.68 1023.76 1023.83 1023.89 1023.95 1024.00 1024.03
1008.26 1008.81 1009.22 1009.50 1009.63 1009.64 1009.55 1009.42 1009.29 1009.20 1009.20 1009.32 1009.61 1010.05 1010.64 1011.36 1012.17 1013.03 1013.91 1014.76 1015.58 1016.33 1017.03 1017.68 1018.30 1018.90 1019.49 1020.08 1020.67 1021.24 1021.78 1022.27 1022.70 1023.07 1023.38 1023.62 1023.81 1023.96 1024.09 1024.20 1024.30 1024.38 1024.44 1024.49
1008.16 1008.64 1008.96 1009.14 1009.16 1009.06 1008.90 1008.70 1008.52 1008.42 1008.44 1008.61 1008.94 1009.43 1010.07 1010.82 1011.66 1012.54 1013.43 1014.31 1015.14 1015.94 1016.69 1017.40 1018.09 1018.75 1019.41 1020.06 1020.68 1021.28 1021.83 1022.34 1022.78 1023.16 1023.48 1023.74 1023.97 1024.16 1024.33 1024.47 1024.60 1024.71 1024.80 1024.86
1008.19 1008.60 1008.85 1008.92 1008.85 1008.66 1008.41 1008.15 1007.93 1007.80 1007.81 1007.98 1008.33 1008.84 1009.49 1010.27 1011.12 1012.01 1012.92 1013.82 1014.70 1015.54 1016.34 1017.12 1017.87 1018.60 1019.31 1019.99 1020.65 1021.26 1021.82 1022.32 1022.76 1023.14 1023.47 1023.76 1024.01 1024.23 1024.43 1024.61 1024.77 1024.90 1025.01 1025.09
1008.31 1008.65 1008.82 1008.81 1008.66 1008.39 1008.07 1007.75 1007.49 1007.33 1007.31 1007.47 1007.81 1008.31 1008.96 1009.73 1010.59 1011.50 1012.42 1013.35 1014.26 1015.15 1016.01 1016.84 1017.64 1018.42 1019.17 1019.88 1020.54 1021.16 1021.71 1022.20 1022.64 1023.02 1023.35 1023.64 1023.91 1024.16 1024.38 1024.59 1024.77 1024.93 1025.06 1025.16
1008.45 1008.71 1008.81 1008.74 1008.52 1008.21 1007.84 1007.48 1007.19 1007.00 1006.96 1007.10 1007.41 1007.90 1008.53 1009.29 1010.13 1011.04 1011.98 1012.92 1013.86 1014.79 1015.69 1016.56 1017.41 1018.21 1018.98 1019.70 1020.36 1020.96 1021.50 1021.98 1022.40 1022.77 1023.10 1023.41 1023.69 1023.95 1024.20 1024.42 1024.63 1024.81 1024.95 1025.08
1008.55 1008.74 1008.77 1008.65 1008.41 1008.07 1007.69 1007.32 1007.02 1006.83 1006.78 1006.89 1007.18 1007.64 1008.24 1008.97 1009.80 1010.69 1011.62 1012.58 1013.53 1014.47 1015.40 1016.29 1017.14 1017.96 1018.72 1019.43 1020.08 1020.66 1021.18 1021.64 1022.05 1022.41 1022.75 1023.06 1023.35 1023.63 1023.89 1024.14 1024.36 1024.56 1024.73 1024.87
1008.60 1008.72 1008.70 1008.56 1008.31 1007.98 1007.62 1007.28 1006.99 1006.82 1006.77 1006.87 1007.15 1007.58 1008.15 1008.84 1009.63 1010.49 1011.40 1012.34 1013.28 1014.21 1015.13 1016.01 1016.86 1017.66 1018.40 1019.08 1019.70 1020.26 1020.76 1021.20 1021.60 1021.96 1022.30 1022.62 1022.93 1023.23 1023.51 1023.78 1024.02 1024.24 1024.43 1024.60
1008.60 1008.67 1008.63 1008.48 1008.25 1007.96 1007.65 1007.36 1007.13 1006.99 1006.96 1007.08 1007.34 1007.74 1008.27 1008.91 1009.65 1010.46 1011.32 1012.21 1013.11 1014.01 1014.89 1015.74 1016.55 1017.31 1018.02 1018.66 1019.25 1019.78 1020.26 1020.69 1021.09 1021.45 1021.80 1022.14 1022.47 1022.78 1023.09 1023.37 1023.64 1023.89 1024.11 1024.31
1008.62 1008.65 1008.59 1008.46 1008.27 1008.04 1007.81 1007.60 1007.43 1007.35 1007.36 1007.49 1007.74 1008.12 1008.60 1009.19 1009.86 1010.60 1011.38 1012.20 1013.04 1013.87 1014.69 1015.48 1016.23 1016.94 1017.60 1018.20 1018.75 1019.26 1019.72 1020.14 1020.54 1020.92 1021.28 1021.64 1021.98 1022.32 1022.65 1022.97 1023.26 1023.54 1023.79 1024.02
1008.71 1008.71 1008.66 1008.55 1008.42 1008.27 1008.12 1007.99 1007.91 1007.89 1007.95 1008.10 1008.34 1008.68 1009.12 1009.64 1010.23 1010.88 1011.58 1012.30 1013.05 1013.79 1014.53 1015.24 1015.93 1016.58 1017.18 1017.74 1018.26 1018.74 1019.18 1019.60 1020.00 1020.38 1020.76 1021.13 1021.50 1021.86 1022.22 1022.56 1022.89 1023.19 1023.48 1023.74
1008.91 1008.89 1008.85 1008.78 1008.71 1008.63 1008.57 1008.53 1008.53 1008.57 1008.67 1008.84 1009.07 1009.38 1009.76 1010.21 1010.71 1011.27 1011.86 1012.49 1013.14 1013.79 1014.43 1015.07 1015.68 1016.26 1016.82 1017.33 1017.81 1018.26 1018.69 1019.10 1019.49 1019.88 1020.26 1020.64 1021.03 1021.41 1021.78 1022.14 1022.49 1022.82 1023.14 1023.43
1009.23 1009.21 1009.18 1009.14 1009.12 1009.11 1009.12 1009.16 1009.22 1009.32 1009.45 1009.63 1009.86 1010.13 1010.45 1010.83 1011.25 1011.71 1012.21 1012.74 1013.29 1013.85 1014.41 1014.97 1015.51 1016.03 1016.53 1017.00 1017.44 1017.86 1018.26 1018.65 1019.03 1019.40 1019.78 1020.16 1020.54 1020.92 1021.30 1021.68 1022.05 1022.40 1022.74 1023.05
1009.66 1009.63 1009.61 1009.60 1009.62 1009.66 1009.73 1009.82 1009.93 1010.07 1010.23 1010.41 1010.62 1010.86 1011.14 1011.44 1011.79 1012.17 1012.58 1013.02 1013.48 1013.96 1014.45 1014.94 1015.42 1015.88 1016.33 1016.75 1017.15 1017.54 1017.90 1018.26 1018.60 1018.95 1019.30 1019.65 1020.01 1020.38 1020.76 1021.14 1021.51 1021.87 1022.22 1022.54
1010.16 1010.12 1010.10 1010.11 1010.15 1010.23 1010.33 1010.46 1010.61 1010.77 1010.94 1011.12 1011.32 1011.53 1011.76 1012.01 1012.29 1012.60 1012.94 1013.31 1013.70 1014.12 1014.54 1014.97 1015.39 1015.80 1016.20 1016.58 1016.93 1017.26 1017.58 1017.88 1018.18 1018.48 1018.78 1019.10 1019.42 1019.77 1020.12 1020.49 1020.86 1021.22 1021.56 1021.89
1010.69 1010.64 1010.62 1010.63 1010.69 1010.78 1010.91 1011.06 1011.22 1011.39 1011.57 1011.75 1011.93 1012.11 1012.31 1012.52 1012.75 1013.00 1013.29 1013.60 1013.93 1014.29 1014.66 1015.03 1015.40 1015.76 1016.10 1016.42 1016.72 1017.00 1017.25 1017.49 1017.73 1017.96 1018.21 1018.47 1018.75 1019.05 1019.38 1019.72 1020.08 1020.43 1020.77 1021.08
1011.22 1011.16 1011.14 1011.16 1011.22 1011.32 1011.46 1011.62 1011.79 1011.97 1012.14 1012.31 1012.47 1012.63 1012.80 1012.97 1013.16 1013.37 1013.60 1013.86 1014.14 1014.45 1014.76 1015.08 1015.40 1015.70 1015.99 1016.25 1016.48 1016.69 1016.87 1017.05 1017.21 1017.38 1017.56 1017.76 1017.99 1018.25 1018.55 1018.87 1019.20 1019.54 1019.87 1020.18
1011.77 1011.70 1011.67 1011.69 1011.76 1011.87 1012.01 1012.18 1012.35 1012.52 1012.69 1012.84 1012.99 1013.12 1013.25 1013.39 1013.53 1013.70 1013.88 1014.09 1014.32 1014.56 1014.82 1015.08 1015.34 1015.58 1015.80 1016.00 1016.16 1016.30 1016.41 1016.52 1016.61 1016.72 1016.84 1016.99 1017.18 1017.40 1017.67 1017.97 1018.29 1018.62 1018.94 1019.24
1012.33 1012.26 1012.24 1012.26 1012.34 1012.46 1012.61 1012.77 1012.94 1013.10 1013.26 1013.39 1013.50 1013.60 1013.70 1013.79 1013.89 1013.99 1014.12 1014.27 1014.44 1014.62 1014.81 1015.01 1015.20 1015.37 1015.52 1015.64 1015.74 1015.81 1015.86 1015.91 1015.95 1016.00 1016.08 1016.20 1016.35 1016.56 1016.81 1017.09 1017.41 1017.73 1018.05 1018.34
1012.93 1012.86 1012.85 1012.89 1012.98 1013.11 1013.26 1013.42 1013.58 1013.73 1013.85 1013.96 1014.03 1014.09 1014.14 1014.17 1014.21 1014.26 1014.32 1014.40 1014.50 1014.61 1014.73 1014.85 1014.96 1015.06 1015.14 1015.20 1015.24 1015.26 1015.26 1015.26 1015.26 1015.29 1015.34 1015.44 1015.59 1015.79 1016.03 1016.32 1016.63 1016.95 1017.27 1017.55
1013.55 1013.51 1013.51 1013.57 1013.67 1013.80 1013.95 1014.10 1014.24 1014.36 1014.46 1014.52 1014.55 1014.56 1014.55 1014.52 1014.50 1014.48 1014.46 1014.47 1014.49 1014.52 1014.56 1014.61 1014.65 1014.69 1014.71 1014.71 1014.70 1014.68 1014.65 1014.63 1014.62 1014.64 1014.69 1014.80 1014.95 1015.16 1015.41 1015.70 1016.01 1016.33 1016.64 1016.91
1014.19 1014.16 1014.18 1014.24 1014.35 1014.47 1014.61 1014.75 1014.86 1014.95 1015.00 1015.02 1015.00 1014.95 1014.88 1014.80 1014.71 1014.62 1014.54 1014.47 1014.42 1014.38 1014.35 1014.34 1014.32 1014.30 1014.27 1014.23 1014.19 1014.15 1014.11 1014.08 1014.08 1014.11 1014.18 1014.30 1014.47 1014.69 1014.95 1015.25 1015.56 1015.87 1016.17 1016.42
1014.77 1014.75 1014.78 1014.85 1014.94 1015.06 1015.18 1015.28 1015.36 1015.41 1015.42 1015.39 1015.32 1015.22 1015.10 1014.96 1014.81 1014.67 1014.53 1014.41 1014.30 1014.21 1014.13 1014.06 1014.00 1013.94 1013.88 1013.83 1013.77 1013.72 1013.69 1013.67 1013.69 1013.74 1013.83 1013.98 1014.16 1014.40 1014.67 1014.96 1015.26 1015.56 1015.83 1016.06
1015.25 1015.23 1015.25 1015.31 1015.39 1015.48 1015.56 1015.63 1015.67 1015.68 1015.64 1015.57 1015.46 1015.32 1015.16 1014.98 1014.80 1014.62 1014.45 1014.30 1014.16 1014.03 1013.93 1013.83 1013.74 1013.67 1013.60 1013.54 1013.49 1013.45 1013.42 1013.43 1013.46 1013.53 1013.64 1013.80 1014.00 1014.23 1014.50 1014.78 1015.06 1015.32 1015.56 1015.75
1015.58 1015.54 1015.55 1015.58 1015.64 1015.69 1015.74 1015.77 1015.77 1015.73 1015.66 1015.56 1015.42 1015.26 1015.08 1014.89 1014.70 1014.51 1014.33 1014.17 1014.02 1013.89 1013.78 1013.67 1013.58 1013.51 1013.44 1013.38 1013.34 1013.31 1013.30 1013.32 1013.36 1013.45 1013.57 1013.73 1013.92 1014.14 1014.38 1014.63 1014.87 1015.09 1015.28 1015.43
1015.74 1015.70 1015.68 1015.69 1015.70 1015.72 1015.72 1015.71 1015.68 1015.62 1015.52 1015.40 1015.26 1015.10 1014.92 1014.74 1014.56 1014.38 1014.22 1014.07 1013.93 1013.81 1013.70 1013.61 1013.52 1013.45 1013.39 1013.34 1013.30 1013.28 1013.28 1013.30 1013.34 1013.42 1013.53 1013.68 1013.84 1014.03 1014.24 1014.44 1014.63 1014.81 1014.95 1015.05
1015.80 1015.74 1015.70 1015.67 1015.65 1015.63 1015.61 1015.57 1015.51 1015.43 1015.33 1015.20 1015.07 1014.92 1014.76 1014.60 1014.45 1014.30 1014.16 1014.03 1013.91 1013.80 1013.71 1013.62 1013.55 1013.48 1013.42 1013.37 1013.33 1013.30 1013.29 1013.30 1013.33 1013.39 1013.47 1013.58 1013.71 1013.85 1014.01 1014.16 1014.30 1014.42 1014.52 1014.59
Thickness
5778 5786 5787 5783 5783 5785 5785 5791 5789 5794 5797 5803 5806 5806 5807 5806 5804 5802 5801 5800 5800 5798 5796 5795 5793 5791 5789 5786 5783 5781 5777 5773 5769 5765 5762 5759 5756 5753 5750 5748 5746 5743 5739 5736
5763 5774 5777 5775 5781 5784 5785 5791 5793 5796 5797 5809 5809 5808 5802 5800 5798 5795 5794 5794 5793 5792 5791 5789 5787 5785 5783 5780 5778 5775 5771 5768 5765 5761 5758 5754 5751 5748 5745 5742 5740 5737 5734 5730
5751 5764 5763 5758 5775 5780 5784 5789 5791 5787 5795 5800 5797 5796 5796 5796 5795 5792 5791 5790 5789 5787 5784 5783 5783 5781 5777 5775 5773 5769 5766 5762 5759 5755 5752 5749 5747 5743 5739 5736 5733 5730 5727 5724
5749 5745 5731 5765 5786 5787 5783 5785 5791 5791 5793 5794 5793 5794 5796 5795 5791 5788 5787 5786 5785 5783 5780 5779 5778 5776 5773 5770 5767 5764 5760 5756 5753 5750 5746 5743 5740 5736 5733 5731 5727 5724 5721 5718
5742 5737 5745 5758 5770 5776 5772 5771 5784 5784 5786 5788 5791 5788 5785 5787 5787 5784 5782 5781 5780 5779 5777 5774 5772 5770 5768 5764 5761 5758 5754 5750 5747 5745 5741 5738 5734 5730 5727 5724 5721 5718 5715 5711
5735 5731 5731 5752 5768 5776 5771 5759 5777 5780 5778 5780 5781 5774 5773 5778 5779 5778 5776 5775 5773 5773 5771 5767 5765 5764 5760 5756 5753 5750 5747 5744 5741 5738 5735 5732 5727 5724 5721 5718 5715 5712 5708 5705
5729 5729 5741 5754 5763 5764 5746 5753 5770 5775 5774 5774 5773 5775 5774 5774 5771 5770 5769 5767 5767 5765 5762 5759 5758 5756 5752 5749 5745 5743 5741 5738 5734 5732 5729 5725 5721 5718 5714 5712 5708 5705 5701 5698
5725 5723 5729 5747 5754 5751 5751 5761 5766 5767 5769 5768 5767 5768 5766 5764 5762 5762 5760 5759 5758 5756 5753 5751 5750 5748 5744 5740 5739 5737 5734 5730 5728 5725 5723 5719 5714 5711 5708 5705 5701 5698 5694 5691
5723 5725 5730 5741 5743 5747 5751 5753 5756 5760 5761 5760 5757 5756 5755 5753 5753 5752 5750 5749 5750 5747 5744 5742 5741 5740 5736 5733 5732 5728 5724 5721 5718 5716 5714 5711 5707 5704 5701 5698 5697 5694 5690 5686
5715 5721 5726 5731 5735 5740 5744 5746 5750 5753 5753 5752 5748 5746 5745 5744 5743 5741 5740 5740 5740 5738 5735 5732 5732 5731 5728 5726 5723 5720 5716 5712 5709 5707 5704 5701 5699 5697 5695 5693 5690 5687 5684 5680
5706 5712 5717 5721 5725 5730 5734 5738 5741 5743 5744 5743 5740 5738 5736 5734 5732 5732 5731 5731 5731 5728 5726 5724 5723 5722 5720 5718 5716 5712 5708 5705 5702 5700 5696 5692 5688 5685 5684 5680 5679 5677 5676 5674
5700 5706 5710 5711 5718 5722 5724 5727 5730 5731 5731 5732 5732 5729 5727 5725 5724 5723 5722 5721 5720 5719 5718 5716 5715 5713 5711 5710 5708 5705 5701 5698 5697 5694 5689 5686 5681 5676 5668 5668 5665 5663 5661 5660
5695 5699 5702 5705 5709 5713 5715 5717 5720 5721 5720 5720 5720 5720 5718 5715 5714 5714 5712 5711 5710 5710 5709 5708 5706 5704 5702 5701 5699 5696 5694 5692 5691 5688 5683 5679 5676 5673 5667 5659 5654 5652 5651 5648
5686 5689 5690 5694 5697 5701 5704 5706 5708 5709 5709 5708 5707 5708 5707 5705 5704 5704 5703 5703 5702 5701 5700 5699 5698 5696 5695 5693 5691 5688 5687 5683 5682 5679 5677 5674 5670 5668 5664 5660 5656 5650 5643 5638
5677 5681 5683 5685 5687 5689 5691 5694 5694 5694 5695 5695 5695 5695 5694 5693 5693 5693 5693 5693 5693 5692 5691 5690 5689 5687 5687 5685 5683 5680 5679 5677 5674 5672 5669 5666 5664 5661 5659 5655 5652 5647 5642 5634
5668 5672 5674 5674 5674 5676 5679 5680 5681 5681 5682 5683 5683 5683 5683 5683 5683 5683 5683 5682 5682 5682 5681 5680 5679 5679 5678 5676 5674 5672 5670 5666 5665 5665 5662 5660 5657 5654 5651 5648 5645 5642 5638 5633
5658 5660 5662 5662 5664 5665 5668 5670 5671 5672 5672 5672 5671 5672 5672 5672 5671 5671 5672 5672 5672 5671 5671 5671 5671 5671 5669 5668 5666 5666 5664 5659 5654 5656 5655 5652 5650 5647 5644 5641 5638 5635 5631 5626
5651 5654 5656 5656 5656 5657 5658 5660 5661 5661 5661 5661 5660 5661 5661 5661 5661 5661 5662 5662 5662 5662 5662 5662 5662 5661 5659 5658 5656 5658 5656 5653 5651 5648 5646 5644 5642 5640 5638 5634 5632 5628 5624 5620
5643 5644 5646 5648 5649 5649 5650 5650 5651 5651 5652 5651 5650 5650 5651 5651 5651 5652 5653 5653 5653 5652 5652 5652 5649 5650 5650 5649 5648 5647 5647 5645 5643 5641 5638 5634 5634 5633 5631 5628 5625 5622 5618 5615
5634 5636 5637 5638 5640 5641 5641 5641 5641 5640 5641 5641 5640 5641 5641 5642 5643 5643 5643 5644 5646 5646 5644 5642 5641 5641 5641 5641 5639 5640 5640 5638 5635 5633 5631 5629 5627 5625 5623 5620 5617 5615 5611 5608
5623 5625 5626 5628 5629 5630 5631 5631 5631 5631 5631 5632 5631 5632 5632 5633 5634 5635 5635 5636 5636 5635 5634 5631 5633 5634 5634 5632 5630 5633 5631 5630 5627 5625 5623 5621 5620 5617 5616 5613 5611 5608 5604 5601
5614 5615 5617 5619 5620 5620 5622 5622 5622 5622 5622 5622 5623 5624 5624 5624 5625 5626 5627 5628 5628 5625 5626 5627 5628 5625 5625 5622 5625 5625 5623 5621 5619 5617 5615 5614 5612 5610 5608 5606 5604 5601 5598 5595
5605 5607 5608 5610 5611 5612 5613 5613 5614 5614 5614 5615 5615 5615 5616 5617 5619 5619 5619 5621 5621 5617 5619 5620 5617 5613 5612 5615 5617 5617 5616 5614 5612 5610 5608 5606 5605 5603 5601 5599 5597 5594 5591 5588
5598 5600 5601 5603 5604 5604 5604 5606 5606 5607 5607 5607 5607 5607 5608 5609 5610 5613 5613 5610 5610 5608 5611 5609 5606 5605 5603 5609 5611 5610 5609 5608 5606 5604 5603 5601 5599 5598 5596 5593 5591 5588 5585 5582
5591 5593 5594 5595 5596 5597 5598 5598 5599 5598 5599 5600 5600 5600 5602 5603 5604 5606 5606 5605 5602 5601 5603 5602 5599 5598 5600 5604 5605 5604 5603 5602 5601 5599 5597 5595 5594 5592 5589 5587 5585 5582 5579 5576
5585 5586 5587 5588 5589 5590 5592 5592 5593 5593 5594 5594 5595 5595 5596 5597 5598 5599 5598 5599 5598 5596 5598 5598 5597 5594 5597 5599 5599 5597 5596 5594 5593 5592 5590 5588 5586 5584 5582 5580 5577 5576 5573 5569
5580 5581 5581 5582 5583 5585 5586 5587 5587 5588 5589 5589 5589 5590 5591 5592 5592 5593 5594 5594 5594 5593 5593 5593 5593 5593 5593 5594 5593 5591 5590 5588 5586 5585 5583 5581 5579 5577 5576 5573 5571 5569 5567 5564